Location: Kergaradec
(48.4333°N, 4.4667°W)
Time: 15:13:11
(UTC+00:00)

Daily predictions for brighter satellites

Satellite Brightness Start Highest point End
(mag) Time Altitude Azimuth Time Altitude Azimuth Time Altitude Azimuth
Cosmos 1092 Rocket 4.1 16:46:08 10° N 16:52:26 58° ENE 16:58:38 10° SSE
Cosmos 1898 Rocket 3.7 16:47:18 10° NNW 16:52:34 80° WSW 16:57:45 10° SSE
CZ-4B R/B 4.4 16:51:08 10° E 16:54:52 20° NE 16:58:34 10° NNE
ATLAS CENTAUR R/B 3.3 16:45:37 10° SW 16:56:46 74° SE 17:01:11 10° ENE
USA 267 3.9 16:51:37 10° ENE 16:57:44 41° SE 17:03:50 10° SSW
USA 306 3.5 16:55:03 10° WNW 16:59:06 41° N 17:03:08 10° E
Cosmos 1939 Rocket 3.4 16:55:29 10° SE 16:59:16 38° ENE 17:03:02 10° N
SL-16 R/B 4.4 16:55:05 10° N 16:59:52 24° NW 17:04:40 10° WSW
Cosmos 1633 Rocket 4.1 16:57:23 10° NNE 17:01:00 24° ENE 17:04:36 10° SE
Cosmos 1151 Rocket 4.3 16:58:10 10° SE 17:01:33 22° E 17:04:57 10° NE
Cosmos 1666 3.7 16:59:47 10° NNE 17:02:50 23° ENE 17:05:51 10° SE
Cosmos 1782 3.3 16:59:46 10° SSE 17:03:28 38° E 17:07:11 10° NNE
Cosmos 2360 Rocket 3.7 17:00:17 10° N 17:03:48 16° NE 17:07:18 10° ENE
ISS -2.5 17:01:32 10° WNW 17:04:49 45° SSW 17:08:03 10° SE
Cosmos 1763 Rocket 3.8 17:02:51 10° SSW 17:07:54 69° WNW 17:13:03 10° NNE
SeaSat 1 3.5 17:04:41 10° NNE 17:09:20 41° NW 17:13:56 10° WSW
SL-08 R/B 3.3 17:04:53 10° NNE 17:09:37 82° ESE 17:14:14 10° SSW
Cosmos 1818 3.8 17:04:45 10° NNW 17:10:06 49° NE 17:15:23 10° ESE
NOAA 12 4.1 17:06:34 10° SSE 17:11:53 78° ENE 17:17:12 10° NNW
Cosmos 1340 Rocket 4.2 17:09:08 10° NNW 17:13:01 43° W 17:16:53 10° SSW
CZ-2C R/B 4.1 17:13:48 10° S 17:14:16 10° SSE 17:14:43 10° SSE
Meteor 2-14 Rocket 4.4 17:09:15 10° N 17:15:19 66° ENE 17:21:21 10° SSE
ATLAS 5 CENTAUR R/B 3.4 17:07:13 10° NW 17:16:27 38° NNE 17:19:39 11° E
Cosmos 1627 Rocket 4.4 17:10:45 10° N 17:16:56 74° E 17:23:02 10° SSE
Cosmos 2279 Rocket 4.5 17:11:56 10° SSE 17:17:34 39° E 17:23:14 10° NNE
Cosmos 841 Rocket 3.5 17:13:03 10° S 17:18:10 69° ESE 17:23:18 10° NNE
ERBS 4.1 17:16:27 10° NW 17:18:44 18° N 17:20:46 11° NE
Meteor PRIRODA 3.7 17:15:22 10° SSE 17:18:59 82° WSW 17:22:38 10° NNW
Cosmos 1743 Rocket 4.3 17:15:13 10° NNW 17:19:28 56° W 17:23:42 10° S
USA 307 3.4 17:15:39 10° WNW 17:19:45 44° NNE 17:23:33 12° E
CZ-4C R/B 4.0 17:16:40 10° N 17:20:21 52° WNW 17:23:51 10° SSW
CZ-4C R/B 3.0 17:13:54 10° NW 17:21:02 82° NE 17:29:27 10° SE
Spot 1 4.4 17:16:23 10° NNE 17:21:13 84° ESE 17:26:15 10° SSW
Cosmos 2034 Rocket 4.4 17:17:01 10° SSW 17:23:06 65° WNW 17:29:16 10° N
Lacrosse 5 rocket 1.2 17:19:20 10° NW 17:23:12 65° NNE 17:27:16 10° ESE
Cosmos 1697 Rocket 3.9 17:19:04 10° NW 17:24:24 46° WSW 17:29:44 10° S
Cosmos 372 Rocket 4.1 17:19:18 10° NNW 17:24:34 88° WSW 17:29:50 10° SSE
ATLAS 2AS CENTAUR R/B 4.2 17:19:52 10° NW 17:25:56 25° N 17:31:18 11° NE
Cosmos 1937 Rocket 4.3 17:20:52 10° NNW 17:26:07 58° WSW 17:31:18 10° S
Cosmos 2322 Rocket 3.0 17:22:14 10° NNW 17:27:12 29° NE 17:32:09 10° ESE
AQUARIUS 4.1 17:26:08 10° SSE 17:30:34 64° ENE 17:35:02 10° N
Cosmos 1666 Rocket 3.6 17:26:23 10° N 17:30:46 54° ENE 17:35:04 10° SSE
Cosmos 1980 Rocket 2.4 17:25:06 10° NNW 17:30:47 77° WSW 17:36:23 10° SSE
Cosmos 1328 Rocket 4.3 17:27:34 10° SSE 17:31:30 32° E 17:35:27 10° NNE
USA 234 3.3 17:25:54 10° ESE 17:32:24 72° NNE 17:38:55 10° NW
Cosmos 1470 Rocket 4.3 17:30:16 10° N 17:34:16 31° ENE 17:38:15 10° SE
Cosmos 1544 4.3 17:31:32 10° NNE 17:34:20 21° ENE 17:37:07 10° ESE
Cosmos 1125 Rocket 4.0 17:30:46 10° N 17:35:39 38° ENE 17:40:33 10° SE
CORIOLIS 4.1 17:30:42 10° SSE 17:36:05 76° ENE 17:41:33 10° NNW
X-37B 2.9 17:35:03 10° S 17:36:23 13° SSE 17:37:44 10° ESE
Meteor 1-26 Rocket 4.4 17:31:05 10° S 17:37:06 83° E 17:43:11 10° NNE
Cosmos 1812 2.8 17:33:29 10° S 17:37:13 54° E 17:41:00 10° NNE
Cosmos 2026 Rocket 4.0 17:31:06 10° N 17:37:16 83° W 17:43:19 10° S
PSLV R/B 3.8 17:35:03 10° SSE 17:38:39 51° ENE 17:42:20 10° N
H-2A R/B 2.1 17:34:35 10° SE 17:39:29 50° ENE 17:44:19 10° N
Cosmos 1634 Rocket 4.0 17:33:31 10° S 17:39:51 84° E 17:46:14 10° N
Meteor 1-11 Rocket 4.3 17:36:10 10° N 17:41:15 33° ENE 17:46:22 10° SE
Okean O Rocket 2.4 17:37:34 10° SE 17:41:23 29° ENE 17:45:13 10° N
ATLAS CENTAUR R/B 3.9 17:40:09 10° NNW 17:41:36 11° N 17:43:05 10° N
USA 308 3.2 17:38:23 10° WNW 17:42:33 50° NNE 17:45:21 19° E
Meteor 2-21 Rocket 4.4 17:37:51 10° N 17:43:59 81° E 17:50:03 10° SSE
Sich 1 3.7 17:41:57 10° NNW 17:46:12 59° W 17:50:27 10° S
CZ-2C R/B 4.1 17:42:22 10° S 17:46:59 45° W 17:51:34 10° NNW
SL-16 R/B 2.4 17:42:35 10° NNW 17:48:06 48° NE 17:53:34 10° SE
Cosmos 540 Rocket 4.2 17:45:08 10° SW 17:50:06 53° WNW 17:55:08 10° NNE
SKYMED 2 4.4 17:47:47 18° NE 17:50:09 29° E 17:53:58 10° SSE
Cosmos 2082 Rocket 2.3 17:45:33 10° SSW 17:51:15 80° WNW 17:56:56 10° NNE
ARGOS 3.5 17:46:25 10° SE 17:51:27 41° ENE 17:56:29 10° N
Meteor 1-5 Rocket 4.3 17:47:27 10° N 17:53:28 82° ENE 17:59:20 10° SSE
SMAP 3.5 17:50:12 10° S 17:54:50 66° WSW 17:59:29 10° NNW
deb Chang Zheng 4 3.8 17:52:46 10° SE 17:56:52 43° ENE 18:00:58 10° N
NOAA 6 4.5 17:53:12 10° S 17:58:18 65° WSW 18:03:25 10° NNW
COSMOS 2455 3.2 17:53:29 10° SW 17:59:27 64° NW 18:04:53 13° NNE
Cosmos 1833 Rocket 4.0 17:59:40 10° WSW 18:04:47 35° NW 18:09:57 10° NNE
Cosmos 2278 4.4 17:59:22 10° NW 18:04:59 59° WSW 18:10:33 10° S
USA 305 2.8 18:02:43 10° WNW 18:06:58 66° NNE 18:08:52 31° E
Cosmos 2333 Rocket 3.3 18:03:02 10° N 18:07:36 23° NE 18:08:05 23° NE
CZ-4B DEB 4.5 18:03:25 10° S 18:08:54 71° WSW 18:14:24 10° NNW
Cosmos 1356 Rocket 3.7 18:04:57 10° N 18:09:00 45° ENE 18:13:06 10° SSE
CZ-2C R/B 2.7 18:06:50 13° NNE 18:11:25 51° E 18:16:26 10° S
Cosmos 2219 Rocket 3.5 18:11:05 10° N 18:15:05 21° NE 18:15:05 21° NE
Cosmos 2180 Rocket 4.4 18:09:06 10° S 18:15:24 78° E 18:21:40 10° NNE
Cosmos 44 Rocket 3.8 18:11:22 10° NW 18:16:13 60° WSW 18:20:54 10° SSE
Cosmos 1655 Rocket 4.0 18:10:35 10° N 18:16:59 69° ENE 18:23:19 10° SSE
Aureole 3 Rocket 4.1 18:13:39 10° SSE 18:18:01 39° E 18:24:00 10° NNE
Cosmos 1515 Rocket 3.6 18:14:14 10° S 18:18:33 53° E 18:20:26 30° NNE
Cosmos 921 Rocket 2.8 18:16:38 10° SSW 18:20:49 76° ESE 18:22:47 31° NNE
CZ-4 R/B 4.3 18:21:58 10° SSE 18:26:04 70° ENE 18:30:12 10° N
CZ-2D R/B 4.4 18:27:08 10° S 18:30:48 44° W 18:34:29 10° NNW
CZ-4B R/B 3.2 18:29:28 10° SSE 18:34:52 77° WSW 18:40:12 10° NNW
Cosmos 371 Rocket 4.1 18:30:28 10° N 18:33:50 33° NNE 18:33:50 33° NNE
Cosmos 2298 Rocket 4.4 18:31:02 10° NNW 18:36:20 67° WSW 18:41:37 10° S
COSMO-SKYMED 1 2.4 18:36:23 32° NNE 18:38:24 88° ESE 18:42:44 10° SSW
Cosmos 1151 Rocket 4.4 18:34:47 10° SW 18:38:52 39° WNW 18:42:59 10° N
USA 306 2.8 18:35:01 10° WNW 18:39:17 88° SSW 18:39:52 65° SE
Landsat 5 3.5 18:41:36 56° SSE 18:41:36 56° SSE 18:44:55 10° S
USA 267 3.3 18:37:47 32° NE 18:41:04 76° NNW 18:47:35 10° WSW
MOS 1-B Rocket 4.3 18:35:27 10° NNE 18:41:27 76° WNW 18:48:21 10° SSW
Meteor 2-15 Rocket 4.3 18:37:04 10° S 18:43:11 81° E 18:49:19 10° NNE
APEX 3.2 18:39:56 10° SSW 18:43:02 60° SW 18:43:02 60° SW
Meteor 1-27 Rocket 3.6 18:39:01 10° S 18:44:27 64° E 18:46:30 38° NNE
SJ-11-01 4.5 18:39:52 10° S 18:44:36 74° WSW 18:49:22 10° NNW
YAOGAN 1 4.1 18:48:30 23° N 18:48:30 23° N 18:50:12 10° N
Cosmos 836 Rocket 4.4 18:41:51 10° SSW 18:47:08 72° ESE 18:48:20 52° NE
Cosmos 2360 Rocket 2.1 18:43:21 10° NNW 18:49:00 63° ENE 18:50:08 52° ESE
Cosmos 2237 4.1 18:46:44 10° NNW 18:52:30 87° ENE 18:55:53 26° SSE
CZ-2C R/B 3.7 18:50:50 10° SSW 18:52:48 13° S 18:53:23 13° S
USA 307 3.1 18:55:37 10° WNW 18:59:35 70° WSW 18:59:35 70° WSW
Lacrosse 5 rocket 3.4 18:58:48 10° WNW 19:02:03 24° SW 19:04:38 14° S
SL-08 RB Rocket 3.9 18:58:08 10° S 19:02:44 70° WSW 19:07:20 10° NNW
Cosmos 1933 Rocket 4.3 19:01:57 10° NNW 19:06:10 51° W 19:10:22 10° S
X-37B 3.7 19:08:41 10° SW 19:09:02 12° SW 19:09:02 12° SW
Cosmos 2322 Rocket 2.7 19:06:01 10° NW 19:11:38 60° WSW 19:17:09 10° S
COSMOS 2428 4.1 19:07:55 10° NNW 19:10:45 26° N 19:10:45 26° N
USA 234 4.1 19:10:00 13° SSE 19:15:39 45° SW 19:21:54 10° WNW
NOSS 3-4 (A) 3.9 19:09:40 10° NW 19:16:19 54° NE 19:16:19 54° NE
NOSS 3-4 (C) 3.9 19:09:46 10° NW 19:16:23 54° NE 19:16:23 54° NE
Okean O Rocket 3.2 19:13:32 10° SSW 19:17:38 35° W 19:21:45 10° NNW
ATLAS 2AS CENTAUR R/B 3.6 19:12:27 10° NW 19:18:44 34° NNE 19:18:44 34° NNE
H-2A R/B 4.2 19:15:04 10° SSW 19:19:11 24° W 19:23:14 10° NW
Cosmos 1867 3.5 19:14:00 10° SW 19:19:09 80° SW 19:19:09 80° SW
GEOS 3 Rocket 4.0 19:23:03 54° NNW 19:23:03 54° NNW 19:27:06 10° NW
ATLAS CENTAUR R/B 4.3 19:20:13 10° NNW 19:20:20 10° NNW 19:20:20 10° NNW
USA 308 4.1 19:18:21 10° WNW 19:21:24 40° W 19:21:24 40° W
NOSS 3-3 (A) 3.9 19:20:55 10° SSW 19:25:51 66° S 19:25:51 66° S
NOSS 3-3 (C) 3.9 19:21:01 10° SSW 19:25:55 65° S 19:25:55 65° S
ATLAS CENTAUR R/B 3.9 19:22:52 10° W 19:27:07 25° NW 19:27:07 25° NW
SL-16 R/B 3.8 19:27:02 10° NW 19:32:01 32° WSW 19:36:58 10° SSW
Cosmos 2237 Rocket 4.4 19:30:05 10° N 19:30:53 13° N 19:30:53 13° N
Cosmos 2082 Rocket 4.3 19:32:15 10° W 19:36:16 19° NW 19:38:48 15° N
CZ-2C R/B 4.5 19:48:21 15° NNW 19:51:25 26° WNW 19:55:37 10° WSW
Cosmos 2333 Rocket 3.4 19:46:48 10° NNW 19:50:07 36° NNW 19:50:07 36° NNW
Cosmos 2219 Rocket 3.8 19:54:25 10° NNW 19:56:49 26° NNW 19:56:49 26° NNW
USA 267 4.3 20:25:08 39° NW 20:25:08 39° NW 20:29:48 10° W
Cosmos 2360 Rocket 4.2 20:28:08 10° NW 20:31:58 23° W 20:31:58 23° W
